ARIANE 5 DEB (SYLDA), 44478

Orbit data source: Space-Track

ARIANE 5 DEB (SYLDA), 44478 is space debris originally from a launch on Tue, 06 Aug 2019 UTC launched from the French Guiana (FRGUI). Debris objects in space refer to the collection of defunct objects orbiting the Earth. Examples of debris include non-operational satellites, rocket bodies, and fragments generated from explosions, collisions, or faulty payload assembly.

Loading next visibility...
Identifier
44478, 2019-049D
Orbit
Active
Country
Flag of FRFR
Related business
Manufacturer
ADS/Bremen
Mission
Spacecraft
Bus & Motor
SYLDA 5, Unknown motor
Mass
440 kg wet, 440 kg dry
Launch date (UTC)
2019-08-06 (6 years ago)
Launch vehicle
Unknown
Launch site
French Guiana (FRGUI)
Object type
Payload
Rocket body
Debris
Shape & HBR
Cyl, 2.8 m
Radar Cross Section
27.391 m², Large (>1 m²)

Expand to show TLE details & history
Last TLE update: 11 hours ago

TLE from 11 hours ago
0 ARIANE 5 DEB (SYLDA)
1 44478U 19049D   25303.17547129  .00479658  00000-0  69381-2 0  9997
2 44478   4.3306 180.9394 3135711 311.4500  25.5292  9.20764509102093
Epoch: 2025-10-30T04:12Z
TLE epoch observation values (Epoch: 2025-10-30T04:12:40.719Z)
Latitude
-0.00001°
Longitude
79.0316°
Altitude
799.818 km
Speed
8.344 km/s
True Right ascension
12h 03m 45s
True Declination
0° 00' 00"
Sunlit
Object was in daylight at epoch
Visualization orbit readout
Latitude
Unknown
Longitude
Unknown
Altitude
Unknown
Speed
Unknown
Apparent Right ascension
Unknown
Apparent Declination
Unknown
Sunlit
N/A
Visualization observer readout
Local Sidereal Time
10:54:38
Azimuth
Unknown
Elevation
Unknown
Doppler factor
Unknown
Orbital elements
Apogee altitude
6,259.413 km
Perigee altitude
225.83 km
Semi-major axis
9,620.759 km
Eccentricity
0.31357
Inclination
4.3306°
RAAN
180.9394°
Arg. of periapsis
311.45°
True anomaly
48.55795°
Mean anomaly
25.5292°
Eccentric anomaly
36.11993°
Mean motion
2.30001 °/min
Orbital period
156.52 mins
BSTAR
0.0069381
Loading maneuver chart data...
Computing Atmospheric mass density...
Loading historical data...
Loading historical data...
Loading historical data...
Loading historical data...
Loading historical data...
Loading historical data...
Loading historical data...
Other satellites on launch #49 in the year 2019 (2019-08-06 UTC)

Documentation

Showing up to 5 results
|